VJC436 VVTS-VVCR

Flight info

Callsign VJC436
Flight time 0h 40m
Altitude 33000
Route BIXEX5P BIXEX W15 BANKE BANKE1A
Aircraft A321/M-SDE3FGHIRWY/LB1

Departure

Time 2026-05-07 14:21
Airport Tan Son Nhat International Airport (VVTS)

Arrival

Time 2026-05-07 15:01
Airport Cam Ranh International Airport / Cam Ranh Air Base (VVCR)
Time Latitude Longitude Altitude Speed Heading
2026-05-07 13:57 10.81394 106.66125 33 ft 0 kts 95°
2026-05-07 14:07 10.81395 106.66122 33 ft 0 kts 95°
2026-05-07 14:08 10.81395 106.66111 33 ft 2 kts 92°
2026-05-07 14:08 10.81396 106.66100 32 ft 1 kts 96°
2026-05-07 14:08 10.81397 106.66086 32 ft 2 kts 81°
2026-05-07 14:09 10.81394 106.66071 32 ft 2 kts 71°
2026-05-07 14:09 10.81388 106.66057 32 ft 2 kts 58°
2026-05-07 14:09 10.81379 106.66044 32 ft 2 kts 46°
2026-05-07 14:09 10.81367 106.66034 32 ft 2 kts 34°
2026-05-07 14:10 10.81354 106.66026 32 ft 2 kts 21°
2026-05-07 14:10 10.81339 106.66022 32 ft 1 kts
2026-05-07 14:10 10.81332 106.66021 32 ft 1 kts
2026-05-07 14:10 10.81330 106.66021 32 ft 0 kts
2026-05-07 14:15 10.81333 106.66021 32 ft 1 kts
2026-05-07 14:15 10.81359 106.66024 32 ft 5 kts
2026-05-07 14:15 10.81411 106.66029 31 ft 9 kts
2026-05-07 14:16 10.81489 106.66035 29 ft 12 kts
2026-05-07 14:16 10.81586 106.66045 29 ft 14 kts
2026-05-07 14:16 10.81696 106.66056 29 ft 16 kts
2026-05-07 14:16 10.81819 106.66067 29 ft 18 kts
2026-05-07 14:17 10.81892 106.66157 29 ft 18 kts 75°
2026-05-07 14:17 10.81939 106.66279 29 ft 18 kts 69°
2026-05-07 14:17 10.81987 106.66408 29 ft 19 kts 71°
2026-05-07 14:17 10.82038 106.66539 29 ft 20 kts 69°
2026-05-07 14:18 10.82088 106.66674 30 ft 20 kts 70°
2026-05-07 14:18 10.82138 106.66807 32 ft 20 kts 70°
2026-05-07 14:18 10.82189 106.66941 34 ft 17 kts 70°
2026-05-07 14:18 10.82260 106.67003 35 ft 11 kts 346°
2026-05-07 14:19 10.82269 106.67001 35 ft 0 kts 340°
2026-05-07 14:19 10.82274 106.66998 35 ft 1 kts 340°
2026-05-07 14:19 10.82295 106.66991 35 ft 4 kts 335°
2026-05-07 14:20 10.82338 106.66960 34 ft 8 kts 331°
2026-05-07 14:20 10.82363 106.66932 34 ft 4 kts 255°
2026-05-07 14:20 10.82361 106.66925 34 ft 0 kts 250°
2026-05-07 14:20 10.82361 106.66924 34 ft 0 kts 250°
2026-05-07 14:21 10.82316 106.66809 32 ft 53 kts 245°
2026-05-07 14:21 10.82093 106.66215 29 ft 126 kts 249°
2026-05-07 14:21 10.81710 106.65196 138 ft 173 kts 247°
2026-05-07 14:21 10.81278 106.64054 776 ft 176 kts 246°
2026-05-07 14:22 10.80819 106.62893 1494 ft 178 kts 244°
2026-05-07 14:22 10.80369 106.61711 2067 ft 183 kts 245°
2026-05-07 14:22 10.79898 106.60469 2453 ft 198 kts 246°
2026-05-07 14:22 10.79380 106.59103 2836 ft 214 kts 247°
2026-05-07 14:23 10.78825 106.57633 3230 ft 230 kts 247°
2026-05-07 14:23 10.77974 106.56242 3735 ft 235 kts 218°
2026-05-07 14:23 10.76475 106.55615 4289 ft 234 kts 180°
2026-05-07 14:23 10.74935 106.55948 4766 ft 229 kts 148°
2026-05-07 14:24 10.73570 106.56844 5241 ft 237 kts 143°
2026-05-07 14:24 10.72189 106.57768 5939 ft 240 kts 144°
2026-05-07 14:24 10.70762 106.58700 6628 ft 244 kts 144°
2026-05-07 14:24 10.69325 106.59624 7325 ft 246 kts 144°
2026-05-07 14:25 10.67870 106.60554 8027 ft 248 kts 144°
2026-05-07 14:25 10.66399 106.61490 8718 ft 250 kts 143°
2026-05-07 14:25 10.65069 106.62580 9353 ft 246 kts 122°
2026-05-07 14:25 10.64409 106.64136 9982 ft 239 kts 95°
2026-05-07 14:26 10.64513 106.65827 10387 ft 249 kts 72°
2026-05-07 14:26 10.65161 106.67529 10698 ft 265 kts 68°
2026-05-07 14:26 10.65856 106.69311 10981 ft 281 kts 68°
2026-05-07 14:26 10.66588 106.71220 11249 ft 297 kts 69°
2026-05-07 14:27 10.67359 106.73251 11523 ft 312 kts 69°
2026-05-07 14:27 10.68156 106.75359 11761 ft 327 kts 69°
2026-05-07 14:27 10.68987 106.77560 12006 ft 341 kts 69°
2026-05-07 14:27 10.69856 106.79865 12249 ft 354 kts 69°
2026-05-07 14:28 10.70710 106.82270 12461 ft 365 kts 73°
2026-05-07 14:28 10.71280 106.84785 12810 ft 372 kts 81°
2026-05-07 14:28 10.71526 106.87432 13272 ft 375 kts 88°
2026-05-07 14:28 10.71557 106.90099 13721 ft 378 kts 89°
2026-05-07 14:29 10.71553 106.92753 14158 ft 380 kts 90°
2026-05-07 14:29 10.71545 106.95470 14588 ft 383 kts 90°
2026-05-07 14:29 10.71539 106.98181 15023 ft 385 kts 90°
2026-05-07 14:29 10.71536 107.00938 15434 ft 388 kts 90°
2026-05-07 14:30 10.71535 107.03667 15837 ft 390 kts 90°
2026-05-07 14:30 10.71534 107.06454 16252 ft 392 kts 90°
2026-05-07 14:30 10.71533 107.09199 16649 ft 394 kts 90°
2026-05-07 14:30 10.71532 107.12012 17028 ft 396 kts 90°
2026-05-07 14:31 10.71531 107.14809 17395 ft 398 kts 90°
2026-05-07 14:31 10.71530 107.17648 17735 ft 401 kts 90°
2026-05-07 14:31 10.71528 107.20500 18069 ft 404 kts 90°
2026-05-07 14:31 10.71526 107.23361 18396 ft 406 kts 90°
2026-05-07 14:32 10.71524 107.26221 18722 ft 408 kts 90°
2026-05-07 14:32 10.71579 107.29134 19034 ft 410 kts 84°
2026-05-07 14:32 10.72308 107.31948 19305 ft 413 kts 67°
2026-05-07 14:32 10.73848 107.34438 19625 ft 417 kts 51°
2026-05-07 14:33 10.75948 107.36485 19951 ft 419 kts 43°
2026-05-07 14:33 10.78147 107.38474 20238 ft 421 kts 43°
2026-05-07 14:33 10.80356 107.40473 20518 ft 424 kts 43°
2026-05-07 14:33 10.82559 107.42472 20790 ft 426 kts 43°
2026-05-07 14:34 10.84786 107.44498 21071 ft 428 kts 43°
2026-05-07 14:34 10.87016 107.46533 21344 ft 430 kts 43°
2026-05-07 14:34 10.89254 107.48576 21622 ft 432 kts 43°
2026-05-07 14:34 10.91515 107.50644 21904 ft 433 kts 43°
2026-05-07 14:35 10.93758 107.52696 22172 ft 434 kts 43°
2026-05-07 14:35 10.96034 107.54779 22452 ft 436 kts 43°
2026-05-07 14:35 10.98301 107.56856 22717 ft 437 kts 43°
2026-05-07 14:35 11.00584 107.58946 22976 ft 439 kts 43°
2026-05-07 14:36 11.02869 107.61041 23224 ft 441 kts 43°
2026-05-07 14:36 11.05169 107.63148 23471 ft 443 kts 43°
2026-05-07 14:36 11.07454 107.65243 23728 ft 444 kts 43°
2026-05-07 14:36 11.09761 107.67358 23979 ft 446 kts 43°
2026-05-07 14:37 11.12110 107.69511 24235 ft 448 kts 43°
2026-05-07 14:37 11.16773 107.73788 24697 ft 452 kts 43°
2026-05-07 14:37 11.19157 107.75976 24932 ft 454 kts 43°
2026-05-07 14:38 11.21510 107.78136 25162 ft 456 kts 43°
2026-05-07 14:38 11.23883 107.80315 25396 ft 458 kts 43°
2026-05-07 14:38 11.26258 107.82497 25629 ft 460 kts 43°
2026-05-07 14:38 11.28645 107.84689 25861 ft 461 kts 43°
2026-05-07 14:39 11.31063 107.86910 26158 ft 461 kts 43°
2026-05-07 14:39 11.33445 107.89100 26505 ft 460 kts 42°
2026-05-07 14:39 11.35827 107.91289 26838 ft 459 kts 42°
2026-05-07 14:39 11.38205 107.93475 26953 ft 459 kts 42°
2026-05-07 14:40 11.40579 107.95658 26963 ft 458 kts 42°
2026-05-07 14:40 11.42960 107.97849 26973 ft 459 kts 42°
2026-05-07 14:40 11.45309 108.00010 26984 ft 459 kts 42°
2026-05-07 14:40 11.47697 108.02208 26994 ft 459 kts 42°
2026-05-07 14:41 11.50092 108.04413 26998 ft 459 kts 42°
2026-05-07 14:41 11.52447 108.06583 26999 ft 459 kts 42°
2026-05-07 14:41 11.54833 108.08780 26989 ft 459 kts 42°
2026-05-07 14:41 11.57197 108.10970 26984 ft 459 kts 43°
2026-05-07 14:42 11.59481 108.13304 26980 ft 459 kts 47°
2026-05-07 14:42 11.61576 108.15762 26982 ft 459 kts 51°
2026-05-07 14:42 11.63491 108.18340 26982 ft 459 kts 54°
2026-05-07 14:42 11.65338 108.20982 26981 ft 459 kts 54°
2026-05-07 14:43 11.67186 108.23656 26985 ft 460 kts 55°
2026-05-07 14:43 11.69056 108.26365 26978 ft 463 kts 54°
2026-05-07 14:43 11.70898 108.29025 26675 ft 459 kts 54°
2026-05-07 14:43 11.72746 108.31691 25804 ft 461 kts 55°
2026-05-07 14:44 11.74444 108.34496 24586 ft 467 kts 61°
2026-05-07 14:44 11.75812 108.37483 23505 ft 468 kts 68°
2026-05-07 14:44 11.76843 108.40591 22899 ft 458 kts 73°
2026-05-07 14:44 11.77729 108.43697 22272 ft 450 kts 74°
2026-05-07 14:45 11.78565 108.46716 21595 ft 445 kts 74°
2026-05-07 14:45 11.79400 108.49748 20866 ft 440 kts 74°
2026-05-07 14:45 11.80229 108.52746 20212 ft 435 kts 74°
2026-05-07 14:45 11.81036 108.55654 19598 ft 429 kts 74°
2026-05-07 14:46 11.81843 108.58555 18985 ft 423 kts 74°
2026-05-07 14:46 11.82650 108.61449 18370 ft 418 kts 74°
2026-05-07 14:46 11.83434 108.64263 17769 ft 413 kts 74°
2026-05-07 14:46 11.84231 108.67092 17162 ft 409 kts 74°
2026-05-07 14:47 11.85015 108.69859 16565 ft 405 kts 74°
2026-05-07 14:47 11.85791 108.72604 15975 ft 401 kts 74°
2026-05-07 14:47 11.86560 108.75324 15381 ft 397 kts 74°
2026-05-07 14:47 11.87329 108.78046 14798 ft 393 kts 74°
2026-05-07 14:48 11.88082 108.80713 14220 ft 389 kts 74°
2026-05-07 14:48 11.88824 108.83342 13648 ft 385 kts 74°
2026-05-07 14:48 11.89523 108.85942 13076 ft 381 kts 76°
2026-05-07 14:48 11.90069 108.88577 12695 ft 370 kts 79°
2026-05-07 14:49 11.90517 108.91138 12708 ft 368 kts 79°
2026-05-07 14:49 11.90963 108.93717 12607 ft 368 kts 79°
2026-05-07 14:49 11.91402 108.96275 12047 ft 367 kts 79°
2026-05-07 14:49 11.91836 108.98808 11576 ft 360 kts 79°
2026-05-07 14:50 11.92265 109.01309 11301 ft 347 kts 79°
2026-05-07 14:50 11.92668 109.03659 11046 ft 334 kts 79°
2026-05-07 14:50 11.93064 109.05963 10810 ft 323 kts 78°
2026-05-07 14:50 11.93451 109.08213 10535 ft 313 kts 78°
2026-05-07 14:51 11.93820 109.10361 10364 ft 300 kts 78°
2026-05-07 14:51 11.94172 109.12411 10188 ft 288 kts 78°
2026-05-07 14:51 11.94514 109.14400 10029 ft 276 kts 78°
2026-05-07 14:51 11.94842 109.16310 9702 ft 274 kts 78°
2026-05-07 14:52 11.95171 109.18224 9320 ft 273 kts 78°
2026-05-07 14:52 11.95388 109.19487 9074 ft 272 kts 78°
2026-05-07 14:52 11.95458 109.22069 8570 ft 274 kts 97°
2026-05-07 14:52 11.94957 109.23940 8209 ft 275 kts 107°
2026-05-07 14:53 11.94299 109.25778 7851 ft 274 kts 108°
2026-05-07 14:53 11.93640 109.27577 7504 ft 273 kts 107°
2026-05-07 14:53 11.92978 109.29397 7153 ft 271 kts 107°
2026-05-07 14:53 11.92152 109.31103 6772 ft 275 kts 127°
2026-05-07 14:54 11.90601 109.32262 6401 ft 280 kts 156°
2026-05-07 14:54 11.88683 109.32539 6037 ft 282 kts 185°
2026-05-07 14:54 11.86791 109.31980 5703 ft 281 kts 200°
2026-05-07 14:54 11.84965 109.31267 5365 ft 279 kts 200°
2026-05-07 14:55 11.83159 109.30571 5125 ft 273 kts 199°
2026-05-07 14:55 11.81396 109.29904 5077 ft 259 kts 200°
2026-05-07 14:55 11.79887 109.28994 4968 ft 248 kts 230°
2026-05-07 14:55 11.79202 109.27440 4860 ft 242 kts 267°
2026-05-07 14:56 11.79539 109.25816 4491 ft 237 kts 300°
2026-05-07 14:56 11.80363 109.24361 4180 ft 237 kts 302°
2026-05-07 14:56 11.81165 109.22876 3860 ft 237 kts 300°
2026-05-07 14:56 11.81921 109.21389 3544 ft 237 kts 299°
2026-05-07 14:57 11.82661 109.19880 3227 ft 237 kts 298°
2026-05-07 14:57 11.83458 109.18428 2882 ft 228 kts 314°
2026-05-07 14:57 11.84725 109.17593 2624 ft 208 kts 348°
2026-05-07 14:57 11.86052 109.17568 2639 ft 177 kts 11°
2026-05-07 14:58 11.87206 109.17851 2545 ft 164 kts 18°
2026-05-07 14:58 11.88266 109.18205 2319 ft 158 kts 20°
2026-05-07 14:58 11.89301 109.18574 2070 ft 151 kts 20°
2026-05-07 14:58 11.90273 109.18919 1874 ft 145 kts 20°
2026-05-07 14:59 11.91218 109.19250 1655 ft 141 kts 20°
2026-05-07 14:59 11.92137 109.19568 1450 ft 139 kts 20°
2026-05-07 14:59 11.93056 109.19886 1244 ft 139 kts 20°
2026-05-07 14:59 11.93974 109.20204 1037 ft 138 kts 20°
2026-05-07 15:00 11.94889 109.20521 826 ft 138 kts 19°
2026-05-07 15:00 11.95808 109.20840 624 ft 138 kts 20°
2026-05-07 15:00 11.96708 109.21156 421 ft 137 kts 20°
2026-05-07 15:00 11.97614 109.21467 214 ft 137 kts 19°
2026-05-07 15:01 11.98518 109.21780 60 ft 132 kts 19°
2026-05-07 15:01 11.99266 109.22040 57 ft 88 kts 19°
2026-05-07 15:01 11.99723 109.22196 57 ft 53 kts 20°
2026-05-07 15:01 11.99903 109.22232 57 ft 19 kts 326°
2026-05-07 15:02 11.99942 109.22152 57 ft 8 kts 288°
2026-05-07 15:02 11.99957 109.22105 57 ft 6 kts 288°
2026-05-07 15:02 11.99972 109.22060 57 ft 7 kts 288°
2026-05-07 15:02 11.99990 109.22006 57 ft 8 kts 288°
2026-05-07 15:03 12.00011 109.21944 58 ft 9 kts 289°
2026-05-07 15:03 12.00035 109.21873 58 ft 11 kts 289°
2026-05-07 15:03 12.00060 109.21796 58 ft 12 kts 287°
2026-05-07 15:03 12.00088 109.21710 59 ft 13 kts 289°
2026-05-07 15:04 12.00140 109.21641 59 ft 13 kts 355°
2026-05-07 15:04 12.00229 109.21667 59 ft 13 kts 23°
2026-05-07 15:04 12.00321 109.21701 58 ft 14 kts 12°
2026-05-07 15:04 12.00418 109.21729 58 ft 14 kts 21°
2026-05-07 15:05 12.00516 109.21765 58 ft 15 kts 18°
2026-05-07 15:05 12.00615 109.21780 58 ft 12 kts 338°
2026-05-07 15:05 12.00657 109.21703 58 ft 11 kts 289°
2026-05-07 15:05 12.00668 109.21667 58 ft 1 kts 287°
2026-05-07 15:06 12.00670 109.21663 58 ft 0 kts 286°